Temp
83 94 94 88 73 73 67 68 77 72 73 79 81 78 76 77 72 64 82 84 85 84 81 80 74 75 75 75 75 75 76 77 77 77 77 77 77 77 77 76 76 76 76 76 76 75 74 73 73
92 92 91 84 70 65 68 74 71 76 79 81 79 78 76 71 77 74 77 84 85 84 83 81 72 74 75 75 75 75 76 77 77 77 77 77 77 77 76 76 75 76 76 76 76 74 73 73 72
89 90 81 75 71 67 68 74 76 76 78 78 76 79 78 72 78 80 84 85 85 82 83 78 72 74 75 75 75 75 75 77 77 77 76 76 76 75 76 75 75 75 76 75 75 74 73 72 72
87 87 83 70 66 70 72 75 77 74 75 78 78 74 77 79 81 84 83 85 84 82 83 72 72 74 75 74 75 75 75 75 75 76 76 75 76 76 75 74 74 74 75 75 74 73 72 71 71
87 82 69 65 67 71 74 75 77 73 76 76 77 72 73 77 83 83 83 85 82 79 81 78 72 73 73 74 74 74 74 75 75 75 74 74 74 74 74 74 74 74 74 73 72 72 71 70 70
76 79 63 59 66 71 75 76 76 75 77 76 74 76 74 78 79 81 84 84 84 79 80 78 69 70 72 72 73 73 74 74 74 74 74 74 73 73 73 73 73 73 73 72 72 71 70 69 69
72 69 64 65 65 66 73 76 74 75 74 74 79 73 74 72 78 82 83 84 83 80 80 79 78 72 68 69 70 71 71 71 72 72 72 71 71 71 71 71 72 71 72 71 71 70 69 69 68
78 71 65 65 64 66 74 74 77 77 75 79 81 74 73 74 73 82 83 82 82 79 78 80 79 78 77 75 66 68 69 69 69 69 67 67 67 67 68 67 70 70 70 70 70 69 68 68 67
76 68 63 65 66 69 74 73 76 80 77 78 78 79 79 75 71 79 78 78 79 76 75 81 79 79 79 78 71 65 65 66 65 65 64 65 76 76 72 65 67 69 68 69 68 68 67 66 65
72 65 67 75 76 73 74 74 75 74 75 74 74 75 77 72 68 72 75 74 75 71 71 76 80 79 79 80 75 76 74 75 76 75 74 79 78 75 74 65 64 65 65 66 67 66 66 65 76
71 65 73 72 74 74 73 72 76 74 72 78 76 75 74 66 66 70 73 74 73 74 71 73 78 79 78 78 77 78 76 77 76 76 76 77 76 73 74 71 70 70 62 73 70 70 74 73 74
63 69 73 71 71 70 70 74 72 75 78 81 83 83 75 67 67 72 73 75 75 75 74 72 76 73 76 78 77 78 77 76 74 75 74 73 74 74 74 74 74 72 73 72 72 73 72 72 72
65 67 70 71 69 70 70 70 71 73 80 80 80 80 74 72 71 75 76 78 76 75 76 73 72 72 72 74 77 78 77 75 76 75 74 75 74 73 74 74 73 73 73 73 72 72 72 71 71
71 69 70 70 70 70 67 71 68 76 81 80 76 78 76 76 76 76 76 75 76 76 76 77 72 72 73 71 76 77 77 76 76 75 74 74 75 74 73 73 72 73 73 74 73 72 72 71 71
69 62 64 67 69 69 70 65 65 76 76 76 75 77 78 78 79 77 77 75 77 77 77 76 74 72 74 74 75 76 76 77 75 75 75 74 74 74 73 72 72 73 73 72 72 71 71 70 71
59 62 57 64 67 68 67 59 73 80 76 75 78 78 77 78 78 79 79 78 77 76 76 76 75 72 74 76 76 76 75 76 76 76 75 74 73 74 72 72 72 73 72 71 71 71 70 70 70
49 44 52 61 68 68 64 60 71 78 76 75 78 79 79 76 77 79 80 79 78 77 75 74 75 73 74 76 76 76 74 72 75 77 75 74 73 73 73 72 73 73 72 71 71 70 70 69 69
45 46 51 57 65 64 62 61 69 71 72 73 76 79 78 76 77 78 79 79 79 77 76 76 76 75 75 75 75 75 72 70 73 76 76 75 74 73 72 72 71 69 65 64 64 64 65 65 65
60 58 56 62 64 60 60 62 67 72 73 70 73 76 77 78 82 81 79 79 77 76 76 77 76 76 76 73 71 70 66 68 71 75 76 76 75 73 71 71 68 64 62 61 62 61 60 60 61
59 57 57 62 62 58 60 60 67 69 71 73 74 75 76 77 81 80 78 77 75 76 76 77 77 77 76 75 74 74 71 72 73 74 75 76 75 72 70 68 66 64 61 61 60 58 58 59 61
57 54 56 55 58 60 58 55 61 68 70 72 74 76 78 77 76 77 76 74 75 75 75 76 77 78 77 76 75 74 73 71 72 71 73 74 75 74 69 67 65 63 62 61 60 60 59 58 58
50 58 58 54 52 49 59 49 63 68 67 67 70 71 74 76 74 75 75 74 75 74 76 76 77 78 77 77 74 72 69 68 71 72 72 73 74 74 72 70 68 63 62 62 61 60 60 59 57
55 59 55 54 51 51 54 48 59 68 63 67 70 70 73 75 74 72 73 74 77 75 75 77 78 77 76 75 75 73 72 72 73 72 72 72 73 74 73 70 69 65 65 64 63 59 59 58 58
60 56 55 54 53 42 52 52 53 60 65 69 73 75 73 76 77 77 78 76 75 75 74 75 76 76 74 75 75 73 72 72 71 71 70 70 71 71 72 70 68 68 67 65 63 62 60 60 58
57 51 40 36 38 39 52 49 55 64 70 70 71 75 77 77 77 78 77 71 73 71 69 71 73 73 75 73 73 73 73 73 71 71 71 69 68 68 68 68 66 67 66 66 64 61 61 60 59
51 52 43 32 36 43 45 42 54 66 70 72 73 73 72 72 74 74 76 74 72 69 68 67 68 70 73 73 72 73 73 72 72 72 71 69 68 68 69 67 66 65 65 63 62 61 61 62 60
49 46 58 43 32 38 48 53 60 63 64 66 66 67 67 69 72 71 72 70 69 68 67 67 67 66 69 71 70 70 71 70 70 70 71 69 69 67 69 68 66 65 65 64 63 61 60 57 56
54 58 43 46 32 32 48 48 51 57 61 66 68 67 70 72 71 72 70 67 66 66 65 64 65 64 66 68 69 68 69 69 68 68 66 67 67 66 64 66 65 64 63 62 60 58 57 54 53
47 48 51 52 48 38 38 48 64 64 65 66 67 66 68 67 69 71 69 67 64 63 63 62 62 63 63 64 66 65 65 65 65 64 64 63 63 65 63 62 61 61 60 59 58 55 53 52 49
54 51 51 42 38 43 38 46 61 64 67 63 64 65 65 64 67 68 66 64 62 62 63 62 62 62 62 62 63 62 62 60 59 59 61 61 62 62 62 60 57 56 55 55 54 51 51 50 48
MSLP
1012.98 1012.05 1011.65 1011.05 1010.32 1009.26 1008.82 1009.61 1009.84 1010.44 1010.95 1011.37 1011.54 1011.76 1012.06 1012.69 1013.17 1014.83 1016.07 1016.50 1016.84 1017.22 1018.56 1019.10 1019.52 1019.61 1019.77 1019.92 1020.01 1020.04 1020.10 1020.09 1020.18 1020.29 1020.32 1020.43 1020.45 1020.47 1020.54 1020.58 1020.61 1020.69 1020.78 1020.91 1021.02 1021.14 1021.21 1021.28 1021.29
1012.63 1012.03 1011.28 1010.25 1009.41 1008.55 1008.72 1009.70 1009.89 1010.48 1011.11 1011.77 1012.25 1012.46 1012.55 1013.45 1014.41 1015.54 1016.21 1016.74 1017.09 1017.55 1018.29 1019.07 1019.82 1019.81 1019.97 1020.20 1020.28 1020.38 1020.39 1020.45 1020.57 1020.65 1020.74 1020.85 1020.99 1020.97 1021.03 1021.09 1021.11 1021.16 1021.20 1021.31 1021.42 1021.56 1021.64 1021.71 1021.71
1012.88 1012.34 1011.10 1010.13 1009.36 1008.46 1008.84 1009.88 1010.09 1011.28 1011.91 1012.12 1012.31 1012.94 1013.13 1014.07 1014.81 1015.30 1015.93 1016.75 1017.27 1018.07 1018.30 1019.41 1020.05 1020.06 1020.15 1020.40 1020.61 1020.66 1020.76 1020.83 1020.98 1021.16 1021.36 1021.39 1021.43 1021.50 1021.52 1021.60 1021.59 1021.56 1021.65 1021.76 1021.87 1022.04 1022.10 1022.11 1022.09
1012.51 1011.82 1011.40 1010.57 1009.60 1009.93 1010.04 1010.33 1010.88 1011.75 1012.51 1012.68 1012.60 1012.92 1014.32 1015.17 1014.97 1015.38 1016.41 1016.82 1017.26 1018.17 1018.65 1019.82 1020.19 1020.33 1020.40 1020.63 1020.85 1020.98 1021.16 1021.29 1021.45 1021.54 1021.78 1021.90 1021.95 1021.94 1022.00 1022.07 1022.02 1022.01 1022.08 1022.18 1022.36 1022.50 1022.55 1022.53 1022.48
1012.49 1011.94 1011.13 1010.88 1010.38 1010.71 1011.05 1011.33 1011.46 1011.75 1012.05 1012.55 1013.02 1013.30 1014.30 1015.57 1015.65 1016.16 1016.58 1016.86 1017.52 1018.54 1019.11 1019.91 1020.35 1020.62 1020.75 1020.90 1021.01 1021.11 1021.38 1021.57 1021.77 1021.93 1022.10 1022.29 1022.42 1022.54 1022.51 1022.54 1022.57 1022.53 1022.58 1022.64 1022.81 1022.87 1022.94 1022.94 1022.92
1012.17 1011.88 1011.49 1011.18 1010.81 1011.05 1011.35 1011.67 1011.77 1011.95 1012.16 1012.65 1013.14 1013.31 1014.61 1015.90 1016.19 1016.50 1016.75 1017.09 1017.59 1018.49 1019.17 1019.97 1020.60 1020.82 1021.06 1021.22 1021.29 1021.34 1021.52 1021.73 1021.93 1022.15 1022.33 1022.44 1022.63 1022.79 1022.94 1023.01 1023.00 1023.03 1023.04 1023.12 1023.13 1023.20 1023.31 1023.37 1023.37
1012.16 1011.87 1011.36 1011.16 1011.13 1011.36 1011.33 1012.00 1011.94 1011.96 1012.44 1012.68 1012.94 1013.16 1014.89 1016.25 1016.59 1016.61 1016.98 1017.35 1017.75 1018.66 1019.09 1019.76 1020.34 1020.92 1021.25 1021.48 1021.63 1021.73 1021.83 1022.03 1022.17 1022.46 1022.67 1022.80 1022.88 1023.02 1023.21 1023.33 1023.37 1023.43 1023.38 1023.43 1023.59 1023.61 1023.62 1023.68 1023.82
1012.10 1011.93 1011.39 1011.45 1011.10 1011.05 1011.55 1012.03 1012.10 1011.93 1012.33 1013.10 1013.20 1013.05 1013.95 1015.79 1017.24 1016.81 1017.16 1017.59 1018.14 1018.74 1019.34 1019.59 1020.14 1020.62 1020.96 1021.45 1021.88 1022.00 1022.16 1022.38 1022.57 1022.79 1023.06 1023.25 1023.30 1023.30 1023.34 1023.42 1023.56 1023.70 1023.79 1023.80 1023.89 1023.95 1024.04 1024.01 1024.04
1012.58 1011.60 1010.96 1010.89 1011.05 1011.00 1011.84 1011.94 1012.38 1012.39 1012.58 1013.13 1013.51 1013.69 1014.40 1015.97 1017.30 1016.98 1017.26 1017.86 1018.35 1019.12 1019.64 1019.32 1019.91 1020.20 1020.61 1021.18 1021.99 1022.32 1022.50 1022.62 1022.76 1022.98 1023.10 1023.11 1022.89 1023.15 1023.41 1023.74 1023.82 1023.89 1023.99 1024.08 1024.16 1024.27 1024.33 1024.38 1024.31
1012.38 1011.48 1010.72 1010.70 1010.89 1011.20 1011.68 1011.91 1012.09 1012.46 1012.47 1012.93 1013.70 1014.72 1015.27 1016.60 1017.27 1017.13 1017.21 1017.67 1018.18 1019.23 1019.76 1019.74 1019.73 1020.10 1020.46 1020.86 1021.74 1021.81 1022.27 1022.44 1022.31 1022.57 1022.78 1022.30 1022.60 1023.03 1023.25 1024.04 1024.27 1024.29 1024.33 1024.38 1024.43 1024.47 1024.40 1024.22 1023.66
1012.39 1011.40 1011.12 1011.53 1011.79 1011.86 1011.91 1012.14 1012.19 1011.98 1011.81 1011.85 1012.58 1013.99 1015.33 1016.76 1017.25 1017.29 1017.38 1017.75 1018.23 1018.93 1019.72 1020.08 1019.81 1020.03 1020.47 1020.75 1021.32 1021.42 1021.79 1021.92 1022.22 1022.33 1022.48 1022.54 1022.74 1023.30 1023.37 1023.89 1024.11 1024.16 1024.43 1023.94 1024.19 1024.25 1023.89 1024.05 1023.90
1012.64 1012.20 1011.81 1012.10 1012.45 1012.57 1012.34 1012.31 1012.07 1011.89 1011.36 1011.76 1011.97 1012.77 1014.67 1016.06 1016.57 1016.61 1016.89 1017.22 1017.89 1018.38 1019.19 1019.95 1019.79 1020.50 1020.43 1020.62 1020.94 1021.20 1021.48 1021.83 1022.08 1022.35 1022.60 1022.73 1022.73 1022.81 1022.94 1023.18 1023.43 1023.73 1023.86 1023.91 1024.03 1023.96 1024.18 1024.20 1024.19
1012.66 1012.54 1012.53 1012.65 1012.94 1012.88 1012.90 1012.47 1012.22 1011.81 1011.65 1012.00 1012.43 1012.81 1014.05 1014.98 1015.66 1015.97 1016.42 1016.87 1017.59 1018.03 1018.53 1019.57 1020.10 1020.50 1020.73 1020.62 1020.68 1020.84 1021.24 1021.73 1021.83 1022.05 1022.56 1022.64 1022.61 1022.80 1022.97 1023.21 1023.42 1023.47 1023.73 1023.84 1023.94 1024.01 1024.09 1024.20 1024.31
1012.58 1012.68 1012.74 1012.96 1012.87 1012.95 1012.95 1012.32 1012.68 1011.37 1011.31 1011.47 1012.46 1012.57 1013.34 1013.94 1014.56 1015.31 1015.72 1016.25 1016.77 1017.41 1018.00 1018.72 1019.75 1020.26 1020.49 1020.85 1020.41 1020.49 1021.01 1021.29 1021.54 1021.84 1022.23 1022.50 1022.52 1022.71 1022.83 1023.04 1023.36 1023.51 1023.68 1023.73 1023.81 1023.91 1024.06 1024.14 1024.31
1013.19 1013.26 1013.35 1013.04 1012.92 1012.72 1012.98 1012.17 1011.71 1011.45 1011.56 1011.49 1012.00 1012.29 1012.73 1013.21 1013.86 1014.34 1015.01 1015.60 1016.19 1016.89 1017.57 1018.20 1019.10 1019.75 1019.84 1020.35 1020.38 1020.48 1020.63 1020.98 1021.16 1021.61 1021.72 1022.28 1022.52 1022.65 1022.86 1022.96 1023.05 1023.21 1023.50 1023.77 1023.90 1024.08 1024.31 1024.30 1024.26
1014.04 1013.61 1013.03 1012.64 1012.77 1012.85 1012.97 1011.16 1010.59 1010.61 1011.06 1011.01 1011.18 1011.46 1012.09 1012.67 1013.18 1013.78 1014.44 1015.13 1015.95 1016.62 1017.13 1017.88 1018.52 1019.32 1019.24 1019.50 1019.85 1020.03 1020.67 1020.68 1020.92 1021.21 1021.65 1021.99 1022.34 1022.47 1022.77 1022.85 1023.00 1023.12 1023.40 1023.77 1023.77 1023.90 1024.05 1024.21 1024.27
1014.79 1014.03 1013.17 1012.26 1012.40 1012.40 1012.63 1011.16 1010.51 1010.38 1010.69 1010.49 1010.47 1010.74 1011.13 1012.10 1012.64 1013.12 1013.81 1014.46 1015.18 1015.98 1016.74 1017.45 1017.94 1018.54 1018.80 1019.01 1019.43 1019.79 1020.34 1020.90 1020.62 1020.76 1021.18 1021.46 1021.99 1022.25 1022.32 1022.55 1022.69 1023.00 1023.21 1023.43 1023.68 1023.77 1023.97 1024.07 1024.14
1013.50 1013.55 1013.10 1011.96 1012.10 1012.46 1012.10 1010.93 1010.53 1010.84 1010.69 1010.27 1010.14 1010.15 1010.60 1011.21 1011.56 1012.49 1013.09 1013.83 1014.52 1015.30 1016.11 1016.67 1017.25 1017.79 1018.16 1018.53 1018.98 1019.47 1019.86 1020.58 1020.60 1020.28 1020.49 1020.91 1021.33 1021.81 1022.11 1022.17 1022.57 1022.97 1023.49 1023.79 1023.83 1023.95 1023.95 1024.21 1024.31
1012.21 1012.30 1011.97 1011.99 1012.35 1012.53 1011.79 1010.77 1010.33 1009.99 1009.87 1010.09 1009.96 1009.83 1010.05 1010.41 1010.89 1011.66 1012.49 1013.28 1014.11 1014.76 1015.37 1015.65 1016.26 1016.83 1017.39 1017.84 1018.43 1018.74 1019.38 1019.96 1019.92 1019.81 1019.81 1020.18 1020.67 1021.11 1021.53 1021.86 1022.53 1023.09 1023.45 1023.70 1024.02 1024.29 1024.28 1024.21 1024.27
1011.89 1011.74 1011.70 1011.82 1012.56 1012.79 1011.60 1010.27 1009.85 1009.52 1009.05 1009.09 1009.29 1009.31 1009.67 1009.90 1010.31 1010.93 1011.79 1012.55 1013.38 1013.87 1014.34 1014.73 1015.21 1015.75 1016.32 1016.81 1017.37 1017.87 1018.49 1018.74 1018.73 1018.91 1019.23 1019.42 1019.87 1020.63 1021.16 1021.52 1021.93 1022.45 1023.09 1023.46 1023.79 1024.08 1024.28 1024.38 1024.25
1011.94 1011.93 1011.73 1012.15 1012.64 1012.45 1011.67 1009.68 1009.09 1008.42 1008.37 1008.55 1008.54 1008.56 1008.71 1009.05 1009.68 1010.20 1011.05 1011.70 1012.50 1012.93 1013.11 1013.62 1014.12 1014.71 1015.40 1016.08 1016.79 1017.37 1017.77 1018.13 1018.01 1018.27 1018.52 1018.70 1019.15 1019.73 1020.63 1021.03 1021.32 1021.84 1022.29 1022.69 1023.01 1023.46 1023.68 1023.73 1024.01
1011.80 1012.46 1012.23 1012.60 1012.87 1011.83 1011.67 1008.96 1007.32 1006.81 1007.10 1007.58 1007.68 1007.95 1008.06 1008.35 1008.77 1009.20 1009.82 1010.85 1011.47 1011.76 1012.38 1012.77 1013.32 1013.86 1014.52 1015.34 1015.91 1016.23 1016.57 1016.90 1017.13 1017.53 1018.14 1018.33 1018.63 1019.09 1019.71 1020.23 1020.86 1021.41 1021.52 1021.88 1022.18 1022.66 1023.21 1023.49 1023.56
1011.24 1012.11 1012.60 1012.90 1012.95 1012.41 1011.34 1010.64 1006.99 1006.25 1006.36 1006.42 1006.48 1006.88 1007.07 1007.44 1007.95 1008.76 1009.45 1009.93 1010.42 1011.42 1012.00 1012.39 1012.90 1013.37 1013.93 1014.45 1014.84 1015.28 1015.80 1016.30 1016.83 1017.10 1017.43 1017.82 1018.23 1018.50 1018.84 1019.33 1019.72 1020.36 1020.70 1020.79 1021.25 1021.91 1022.46 1022.88 1022.83
1011.75 1012.55 1013.14 1013.43 1013.12 1011.73 1010.70 1009.81 1006.75 1005.94 1005.31 1005.37 1005.37 1005.42 1005.99 1006.54 1007.21 1007.80 1008.46 1009.38 1010.07 1010.71 1011.28 1011.67 1012.17 1012.64 1013.37 1013.96 1014.31 1014.64 1015.02 1015.64 1016.10 1016.33 1016.74 1017.15 1017.64 1017.84 1018.26 1018.75 1018.91 1019.26 1019.82 1020.14 1020.48 1021.18 1021.96 1022.25 1022.41
1011.57 1012.25 1012.94 1013.56 1013.03 1010.72 1010.22 1009.10 1006.55 1005.47 1004.80 1004.78 1004.93 1004.89 1005.07 1005.60 1006.42 1007.01 1007.77 1008.91 1009.56 1010.23 1010.86 1011.35 1011.64 1011.78 1012.24 1013.12 1013.80 1014.09 1014.36 1014.80 1015.18 1015.55 1015.92 1016.57 1017.07 1017.42 1017.58 1017.92 1018.43 1018.76 1019.14 1019.49 1020.04 1020.52 1021.18 1021.72 1021.88
1010.97 1011.33 1011.13 1011.81 1011.85 1010.90 1010.84 1008.04 1005.71 1005.10 1004.76 1004.61 1004.85 1005.31 1005.80 1005.94 1006.31 1006.82 1007.24 1008.16 1009.09 1009.84 1010.46 1011.02 1011.37 1011.56 1011.82 1012.05 1012.69 1013.26 1013.84 1014.24 1014.56 1014.95 1015.43 1015.89 1016.24 1016.34 1016.80 1017.33 1017.98 1018.28 1018.83 1019.12 1019.62 1020.06 1020.64 1021.03 1021.36
1010.77 1010.81 1010.84 1011.49 1012.76 1011.62 1009.25 1007.28 1006.14 1005.04 1004.48 1004.73 1005.00 1005.52 1005.69 1005.92 1006.23 1006.85 1007.44 1008.19 1008.86 1009.42 1009.95 1010.38 1010.90 1011.37 1011.57 1011.70 1012.16 1012.58 1013.13 1013.62 1014.04 1014.33 1014.81 1015.35 1015.72 1015.93 1016.28 1016.44 1017.30 1017.63 1018.01 1018.51 1018.95 1019.52 1020.05 1020.63 1021.15
1009.45 1010.21 1011.18 1011.02 1011.19 1010.39 1007.72 1006.69 1005.24 1004.69 1004.39 1004.59 1004.59 1004.98 1005.16 1005.52 1005.88 1006.36 1007.14 1008.17 1008.87 1009.33 1009.84 1010.24 1010.44 1010.77 1011.11 1011.45 1011.92 1012.49 1012.93 1013.26 1013.78 1014.16 1014.56 1015.02 1015.40 1015.76 1016.14 1016.50 1016.97 1017.33 1017.68 1018.16 1018.85 1019.53 1020.04 1020.51 1021.03
1009.59 1009.26 1009.47 1009.84 1009.88 1009.34 1008.05 1005.83 1004.32 1004.03 1004.25 1004.66 1004.97 1005.12 1005.32 1005.76 1005.83 1006.25 1006.98 1007.92 1008.84 1009.44 1009.83 1010.15 1010.41 1010.62 1010.95 1011.28 1011.71 1012.33 1012.74 1013.37 1013.71 1014.11 1014.45 1014.80 1015.35 1015.64 1015.87 1016.28 1016.69 1017.10 1017.49 1017.90 1018.61 1019.18 1019.97 1020.62 1021.03
1008.50 1008.25 1008.95 1008.86 1008.92 1009.17 1008.83 1006.07 1004.79 1004.54 1004.46 1005.13 1005.31 1005.49 1005.79 1006.14 1006.24 1006.62 1007.44 1008.28 1008.88 1009.40 1009.80 1010.07 1010.26 1010.55 1011.09 1011.35 1011.59 1012.22 1012.80 1013.32 1013.54 1013.97 1014.12 1014.59 1015.01 1015.35 1015.65 1016.17 1016.67 1016.99 1017.53 1017.98 1018.61 1019.23 1020.05 1020.63 1021.21
Wind_Speed
13 8 6 5 7 5 2 5 6 8 7 4 8 0 7 11 9 6 11 8 15 13 12 11 8 10 12 11 11 9 10 12 15 15 16 16 15 15 16 14 14 15 18 17 16 17 17 16 16
9 8 6 4 7 8 7 5 7 9 9 7 6 3 2 9 8 11 11 13 13 13 10 12 8 8 13 11 11 9 8 11 12 15 14 13 13 15 16 15 15 16 16 16 16 16 16 15 15
8 5 6 4 6 4 4 6 10 7 8 9 5 3 3 5 7 15 16 16 14 13 11 13 8 8 11 12 10 10 10 9 12 12 12 12 14 15 16 15 15 16 16 15 15 15 15 15 14
4 4 4 8 5 3 5 5 10 10 4 2 2 6 5 5 11 9 17 16 14 12 12 13 9 8 11 11 11 10 11 11 12 11 13 13 12 13 15 15 13 15 13 14 15 15 14 14 14
3 3 5 5 5 1 2 2 6 10 8 8 5 6 5 5 9 15 17 15 15 12 13 13 9 8 9 10 9 11 12 11 11 14 13 13 13 11 12 12 11 11 13 14 13 14 13 13 13
5 3 5 6 9 2 2 1 7 8 5 6 5 6 7 7 11 14 15 14 14 13 13 13 9 9 8 8 8 8 11 10 11 14 14 13 13 12 11 10 11 11 11 12 12 13 12 12 12
5 7 10 7 7 3 4 4 8 9 7 8 2 5 6 9 10 14 14 13 13 14 11 12 12 10 8 7 8 9 12 12 13 13 12 11 11 11 11 9 10 10 9 11 11 12 12 12 11
6 3 8 8 9 8 6 6 3 11 7 3 1 3 5 15 11 13 13 13 12 13 10 12 12 11 11 9 6 9 11 11 11 11 10 9 9 10 10 10 8 9 8 9 10 10 10 10 9
3 8 10 13 9 6 5 7 2 3 3 6 5 2 4 19 14 14 13 12 12 10 9 11 11 11 11 10 8 8 9 8 10 9 8 10 7 7 8 9 8 9 8 8 8 7 7 7 7
8 10 12 4 6 3 4 5 8 8 10 9 7 6 13 17 16 16 16 14 15 13 10 9 12 11 10 8 10 9 9 8 7 8 9 5 6 5 7 7 6 7 7 6 5 4 2 7 2
5 10 5 5 1 0 2 5 4 9 10 13 13 13 15 14 16 17 16 16 15 15 10 10 11 11 10 8 7 5 5 4 5 7 6 4 5 5 5 5 4 5 5 4 5 4 1 3 3
4 1 3 5 4 3 3 1 5 12 8 3 5 15 17 18 18 19 18 17 16 16 16 12 11 7 10 7 7 7 6 6 4 6 7 5 4 5 4 3 4 3 3 2 2 1 1 1 1
8 5 5 5 5 3 1 5 7 8 14 5 3 13 18 18 18 17 17 15 15 16 16 16 11 10 10 8 8 7 7 6 7 7 7 6 5 5 5 4 4 3 3 3 2 1 1 0 2
6 7 5 6 7 5 6 9 3 8 11 11 9 15 16 18 19 16 18 17 17 16 16 16 16 12 12 9 9 8 7 7 7 6 7 8 5 5 5 5 4 3 3 2 2 2 2 2 2
4 8 4 7 8 5 6 12 13 14 3 10 13 13 14 15 16 19 18 18 17 14 15 16 16 16 14 14 11 8 7 8 7 7 9 9 7 6 6 5 5 4 4 3 3 3 3 3 3
3 3 8 9 10 5 6 15 14 12 11 13 14 15 14 15 16 16 16 16 16 15 16 15 12 16 15 12 10 8 8 8 8 7 7 10 9 8 7 5 5 4 4 4 3 3 3 3 4
3 3 10 10 10 7 12 11 13 11 12 14 14 14 14 15 16 16 17 17 17 17 17 17 16 16 17 13 9 8 9 8 8 8 8 10 10 10 7 5 5 6 5 4 3 3 3 3 3
8 6 7 15 7 13 12 19 15 9 9 13 13 14 14 15 18 16 18 16 16 17 17 17 15 16 16 11 9 8 6 7 9 8 8 11 10 11 9 6 4 3 2 1 1 1 0 2 3
14 14 15 14 6 7 15 19 18 17 16 14 13 14 14 16 14 16 16 16 16 17 18 19 18 18 13 11 10 9 8 8 8 8 12 11 10 11 9 6 6 5 5 5 4 2 2 2 2
12 14 13 7 7 7 12 19 17 16 18 17 18 16 16 16 14 15 17 17 18 18 17 18 18 19 16 11 10 9 10 9 8 8 10 12 11 11 10 9 8 8 5 6 6 5 3 3 3
15 16 14 10 4 10 10 19 21 19 21 19 19 19 17 17 13 12 15 17 17 19 20 19 19 18 17 15 10 9 8 9 8 9 8 9 12 11 11 10 8 8 7 7 8 8 8 5 4
19 12 10 8 5 7 4 10 12 4 12 17 19 19 18 17 15 16 17 18 19 19 17 18 18 18 16 17 14 16 12 11 10 9 8 9 12 12 12 10 9 9 8 8 8 7 7 5 5
16 14 13 9 9 11 13 7 6 11 10 16 18 21 21 20 17 15 15 17 18 15 14 15 16 16 15 16 18 13 14 10 8 8 11 10 9 11 12 11 11 10 8 9 9 8 9 6 4
14 11 7 4 7 11 17 15 11 14 17 15 15 19 19 20 18 16 14 13 14 13 12 13 16 16 16 16 17 17 15 13 10 10 8 7 8 8 10 11 11 11 9 9 8 7 8 8 6
14 18 5 5 8 10 2 9 14 6 12 15 11 8 10 17 18 16 14 10 11 11 10 11 15 17 17 17 16 17 16 15 14 12 9 10 8 7 11 13 10 8 9 7 7 7 7 8 6
20 18 7 9 8 5 3 11 6 16 17 16 12 7 6 4 6 10 9 10 12 13 12 12 13 14 15 16 17 15 16 10 10 11 8 8 8 9 10 9 9 9 8 6 7 6 6 7 6
22 20 8 4 2 2 8 10 9 13 14 9 9 10 13 12 12 10 9 8 9 9 10 11 11 11 11 12 12 13 12 13 11 11 10 8 9 6 9 9 9 9 9 9 9 6 7 4 4
18 15 9 6 6 6 6 8 9 7 15 11 8 9 9 8 11 10 10 8 6 7 8 10 11 12 12 11 10 9 10 10 9 8 9 9 8 7 6 6 8 7 7 8 7 5 5 5 3
11 17 10 8 6 3 2 4 3 9 6 6 3 5 6 7 10 9 8 7 6 6 7 8 9 10 9 9 9 9 9 8 9 8 8 7 6 8 8 8 7 7 7 7 8 6 6 5 5
16 10 13 8 9 3 2 6 3 3 8 3 4 2 2 3 4 5 6 7 7 7 7 7 7 8 9 9 9 9 10 8 6 5 5 6 8 7 7 7 6 6 7 7 7 7 6 7 6
Wind_Direction
285 294 292 257 241 246 128 141 100 129 148 66 100 315 40 15 6 49 136 127 133 125 119 132 99 95 104 101 97 92 88 94 94 90 85 86 86 82 79 79 83 82 78 75 72 70 68 64 61
308 314 249 278 260 217 140 121 164 149 102 146 114 130 173 86 64 126 127 137 137 117 137 133 108 109 113 110 99 86 72 98 101 85 84 89 85 83 81 76 78 83 83 78 77 73 69 66 64
281 288 276 288 271 274 116 170 118 108 134 161 130 352 35 74 111 142 117 142 135 132 127 117 118 109 112 112 112 97 74 84 82 90 88 89 91 85 81 70 71 76 78 76 77 73 71 70 70
277 215 220 250 231 57 20 152 125 138 138 252 352 119 102 21 143 122 142 143 141 129 125 129 126 127 104 115 117 114 97 95 98 97 95 93 88 84 84 73 67 73 80 79 77 73 69 72 74
223 249 241 255 246 254 126 22 178 179 158 172 193 119 92 108 112 134 146 148 138 145 125 142 127 122 104 105 105 123 117 111 114 109 106 101 93 83 87 90 81 83 85 85 79 73 69 72 72
207 243 226 234 246 158 196 149 195 198 170 131 187 147 106 119 146 153 151 149 146 141 143 139 129 128 119 110 105 95 123 121 137 125 117 110 107 101 92 85 85 76 82 85 82 77 72 73 72
225 218 222 226 242 227 198 155 204 201 188 187 26 213 93 166 149 159 158 148 149 141 148 148 151 134 123 113 117 107 101 90 95 103 103 102 105 103 96 81 88 83 87 89 82 76 74 74 67
224 230 211 220 226 233 131 182 241 207 191 50 250 194 172 163 156 168 161 150 156 140 168 154 154 159 152 143 109 107 103 99 101 104 105 106 103 108 118 119 91 89 83 91 86 80 76 77 73
286 220 216 220 217 226 138 208 186 72 170 203 172 355 57 131 157 171 161 163 163 151 177 164 162 165 156 154 132 117 109 115 119 125 140 163 143 145 147 76 90 97 90 91 92 89 92 100 95
226 224 227 236 217 215 167 233 155 191 199 201 183 110 127 144 162 172 180 175 175 170 178 195 171 168 164 160 161 164 150 166 165 163 181 178 144 82 105 98 93 90 94 94 98 101 198 226 98
202 220 194 183 142 219 164 207 216 217 206 224 202 168 159 163 174 179 188 185 189 176 181 186 198 173 173 169 178 175 175 170 165 174 174 162 140 155 179 142 162 157 204 174 188 185 219 40 15
190 239 193 135 143 163 191 358 210 230 222 68 267 167 171 178 188 191 193 188 189 186 179 187 207 179 195 173 188 182 180 179 180 181 183 176 192 183 171 177 168 191 196 150 211 122 47 45 57
221 175 187 139 159 205 137 223 256 243 244 179 213 163 182 190 196 199 196 196 190 193 184 185 195 191 194 204 191 188 190 191 196 181 187 198 193 186 178 178 189 193 176 192 190 198 205 232 307
193 174 176 184 193 193 228 242 202 233 241 212 202 190 192 199 196 197 195 198 195 196 193 184 190 198 196 201 209 194 194 199 198 190 194 209 203 194 186 180 196 199 206 194 226 234 256 271 288
142 164 214 205 195 219 218 247 234 248 232 220 205 213 207 204 196 204 199 201 197 198 196 193 186 199 202 204 203 208 210 203 198 207 195 198 212 203 201 197 197 196 187 207 221 225 252 274 261
116 237 213 195 202 182 202 256 242 227 209 230 224 213 203 210 208 207 202 204 197 202 202 200 187 200 206 204 209 202 201 219 209 207 204 205 204 209 202 208 210 197 184 206 216 229 245 268 294
68 167 230 220 208 200 207 258 252 240 231 240 229 223 208 211 210 209 205 202 200 199 203 200 197 201 204 209 208 206 203 213 228 209 210 200 207 209 210 213 214 197 201 198 222 233 245 280 281
151 177 234 230 198 228 217 248 248 203 238 242 247 226 220 213 211 206 206 203 200 196 204 204 198 204 200 201 206 209 194 211 232 224 211 214 205 206 210 211 200 173 149 259 278 321 164 269 291
196 204 208 215 148 231 239 251 250 247 230 241 243 247 230 231 219 198 205 200 200 201 204 204 201 201 199 192 197 201 199 208 217 222 222 209 209 205 203 202 195 172 183 184 171 191 235 246 216
226 206 221 218 158 218 258 261 258 254 252 243 242 229 231 233 226 205 198 199 203 202 203 206 205 204 201 195 198 204 202 216 210 212 212 219 206 202 202 203 191 184 177 179 183 184 192 234 182
206 208 212 233 159 238 273 273 257 245 242 243 236 241 229 224 221 204 204 198 198 206 203 206 207 207 205 203 199 201 206 215 204 212 215 212 214 203 202 205 185 177 181 195 194 197 197 215 189
204 217 224 217 242 247 187 280 268 239 227 226 231 229 225 220 218 207 200 205 205 211 207 207 208 207 206 198 203 203 206 209 212 206 213 207 212 205 203 203 199 193 194 200 197 192 211 205 206
219 182 205 215 245 278 236 258 269 248 240 244 229 228 224 220 215 210 207 205 209 209 211 215 213 213 207 205 206 210 213 217 217 213 209 209 211 211 208 198 198 201 204 209 203 192 197 199 206
127 150 149 200 252 253 236 237 249 245 234 241 238 229 223 221 221 221 209 204 206 208 208 207 210 214 211 211 211 216 214 212 215 214 205 200 207 200 208 207 208 204 203 206 202 183 191 204 208
162 161 152 200 213 241 97 236 246 251 239 244 252 260 236 213 221 223 206 189 201 198 198 211 210 215 210 207 215 218 222 218 220 211 206 197 203 197 207 206 205 206 208 198 186 181 196 208 204
187 182 174 194 216 237 138 237 247 244 245 246 249 246 276 279 248 245 238 204 202 203 203 201 214 222 214 204 210 215 218 222 220 217 209 208 207 201 204 200 207 200 198 180 189 183 197 204 203
192 207 213 95 134 285 209 246 274 261 240 234 238 239 237 229 219 222 220 200 206 201 208 213 206 218 218 215 207 211 214 212 215 211 210 203 212 201 205 184 199 201 196 193 191 193 180 167 146
196 159 188 211 191 228 241 258 255 221 236 238 246 242 251 238 223 206 191 194 199 201 200 200 206 206 204 205 205 209 212 212 211 210 207 212 214 186 185 192 196 183 183 179 177 174 149 152 155
173 189 205 185 217 253 275 231 206 245 155 179 294 291 271 281 241 220 189 188 193 193 194 195 194 196 198 199 195 198 197 209 207 210 213 198 204 194 191 193 175 175 178 171 174 149 147 150 132
204 195 197 185 193 192 58 271 53 172 141 78 324 263 242 224 207 197 187 182 184 192 189 191 182 179 188 188 189 193 197 189 184 187 186 181 195 191 181 163 170 162 162 157 154 143 150 148 143